Regional Weather Roundup
Issued by NWS Burlington, VT

Home | Current Version | Previous Version | Text Only | Print | Product List | Glossary On
Versions: 1 2 3 4 5 6 7 8 9 10 11 12 13 14 15 16 17 18 19 20 21 22 23 24 25 26 27 28 29 30 31 32 33 34 35 36 37 38 39 40 41 42 43 44 45 46 47 48 49 50
000
ASUS41 KBTV 040430
RWRBTV
VERMONT REGIONAL WEATHER ROUNDUP
NATIONAL WEATHER SERVICE BURLINGTON VT
1200 AM EDT SAT JUL 04 2015

NOTE: "FAIR" INDICATES FEW OR NO CLOUDS BELOW 12,000 FEET WITH NO
SIGNIFICANT WEATHER AND/OR OBSTRUCTIONS TO VISIBILITY.

* THESE REPORTS ARE NOT UNDER NWS QUALITY CONTROL AND/OR DO NOT
  REPORT WEATHER SUCH AS PRECIPITATION AND FOG.

VTZ001>019-040500-
_____VERMONT_____


CITY           SKY/WX    TMP DP  RH WIND       PRES   REMARKS
BURLINGTON     MOCLDY    61  54  77 CALM      29.96R
MONTPELIER     MOCLDY    53  50  89 CALM      30.04R
MORRISVILLE    MOCLDY    56  52  86 CALM      30.01R
ST. JOHNSBURY*   N/A     56  51  84 MISG      29.98S
LYNDONVILLE*   FAIR      53  48  84 CALM      30.01S
MIDDLEBURY*    FAIR      58  53  83 CALM      29.97S
RUTLAND*       PTCLDY    55  46  71 SE9       30.01R
SPRINGFIELD    MOCLDY    53  50  89 CALM      30.02R
HIGHGATE*      FAIR      58  55  87 CALM      29.96S
NEWPORT*       FAIR      52  50  93 SW5       30.00R
BENNINGTON     MOCLDY    55  49  80 VRB3      30.00S
SUTTON*          N/A     55 N/A N/A MISG        N/A
MT. MANSFIELD*   N/A     52 N/A N/A SW6         N/A

_____LAKE CHAMPLAIN_____


CITY           SKY/WX    TMP DP  RH WIND       PRES   REMARKS
BURTON ISLAND*   N/A     66  55  68 NE1         N/A
COLCHESTER RF*   N/A     64  59  82 NW7         N/A
DIAMOND ISL*     N/A     66  57  72 SW6         N/A

$$

NYZ007-026>031-035-052-083-040500-
_____NORTHERN NEW YORK_____


CITY           SKY/WX    TMP DP  RH WIND       PRES   REMARKS
PLATTSBURGH    MOCLDY    57  54  89 CALM      29.96R
SARANAC LAKE   CLOUDY    49  47  93 CALM      30.00R
MASSENA        MOCLDY    56  52  86 CALM      29.96R
OGDENSBURG*    CLEAR     54  52  94 CALM      29.94F
POTSDAM*       CLEAR     55  54  94 CALM      29.96S
WATERTOWN      MOCLDY    53  50  89 E3        29.95S
FT DRUM        MOCLDY    59  52  77 SE5       29.95F
ALBANY         MOCLDY    62  51  67 CALM      29.98R
GLENS FALLS    MOCLDY    58  55  90 CALM      29.98R

$$
NHZ002-005-011-040500-
_____NEW HAMPSHIRE_____


CITY           SKY/WX    TMP DP  RH WIND       PRES   REMARKS
LEBANON        PTCLDY    53  49  86 CALM      29.99R
KEENE          MOCLDY    57  52  82 CALM      30.01R
MT WASHINGTON  CLOUDY    43  36  75 W9          N/A
PLYMOUTH       FAIR      52  52 100 CALM      30.00R
WHITEFIELD     CLEAR     50  47  89 CALM      30.00S

$$

_____REGIONAL QUEBEC LOCATIONS_____


CITY           SKY/WX    TMP DP  RH WIND       PRES   REMARKS
MONTREAL       MOCLDY    64  55  72 SW3       29.94S
QUEBEC CITY    PTCLDY    59  52  77 SW10      29.91R
SHERBROOKE     CLEAR     52  48  87 E3        29.98R

_____REGIONAL ONTARIO LOCATIONS_____


CITY           SKY/WX    TMP DP  RH WIND       PRES   REMARKS
OTTAWA         MOCLDY    61  48  63 S6        29.94S

______KEY______
VSB  - VISIBILITY IN MILES
WCI  - WIND CHILL INDEX
HX   - HEAT INDEX
$$
NNNN


USA.gov is the U.S. government's official web portal to all federal, state and local government web resources and services.